2022年5月23日

时间 代码 天气 温度 能见度 乌云 METAR/SPECI
18:50
V
22 °C 10 km+ - 200°   200° 8 kt METAR EDDG 231650Z 20008KT 160V230 9999 -SHRA FEW050CB 22/15 Q0996 TEMPO 24015G30KT TSRA
18:20
V
24 °C 10 km+ - 170°   170° 9 kt METAR EDDG 231620Z 17009KT 130V210 9999 -SHRA FEW050CB 24/15 Q0997 TEMPO 24015G25KT SHRA
17:50
V
24 °C 10 km+ - 140°   140° 6 kt METAR EDDG 231550Z 14006KT 090V180 CAVOK 24/14 Q0997 TEMPO 24015G25KT SHRA BKN025CB
17:20
V
24 °C 10 km+ - 120°   120° 8 kt METAR EDDG 231520Z 12008KT 050V170 CAVOK 24/13 Q0997 TEMPO 24015G25KT SHRA BKN025CB
16:50
V
25 °C 10 km+ - 140°   140° 9 kt METAR EDDG 231450Z 14009KT 100V190 CAVOK 25/13 Q0998 TEMPO 24015G25KT SHRA BKN025CB
16:20
V
25 °C 10 km+ - 130°   130° 10 kt METAR EDDG 231420Z 13010KT 040V170 CAVOK 25/13 Q0998 TEMPO 24015G25KT SHRA BKN025CB
15:50
V
26 °C 10 km+ - 130°   130° 7 kt METAR EDDG 231350Z 13007KT 060V210 CAVOK 26/13 Q0999 NOSIG
15:20
V
25 °C 10 km+ - 130°   130° 7 kt METAR EDDG 231320Z 13007KT 050V210 CAVOK 25/13 Q0999 NOSIG
14:50
V
25 °C 10 km+ - 130°   130° 8 kt METAR EDDG 231250Z 13008KT 070V180 CAVOK 25/13 Q1000 NOSIG
14:20
V
24 °C 10 km+ - 140°   140° 10 kt METAR EDDG 231220Z 14010KT 090V180 CAVOK 24/13 Q1000 NOSIG
13:50
V
25 °C 10 km+ - 140°   140° 9 kt METAR EDDG 231150Z 14009KT 060V210 CAVOK 25/13 Q1001 NOSIG
13:20
V
24 °C 10 km+ - 140°   140° 9 kt METAR EDDG 231120Z 14009KT 080V170 CAVOK 24/12 Q1001 NOSIG
12:50
V
22 °C 10 km+ - 130°   130° 9 kt METAR EDDG 231050Z 13009KT 070V190 CAVOK 22/12 Q1002 NOSIG
12:20
V
23 °C 10 km+ - 140°   140° 7 kt METAR EDDG 231020Z 14007KT 100V180 CAVOK 23/12 Q1002 NOSIG
11:50
V
22 °C 10 km+ - 110°   110° 8 kt METAR EDDG 230950Z 11008KT 040V180 CAVOK 22/12 Q1003 NOSIG
11:20
V
22 °C 10 km+ - 100°   100° 6 kt METAR EDDG 230920Z 10006KT 030V160 CAVOK 22/12 Q1003 NOSIG
10:50
V
20 °C 10 km+ - 110°   110° 6 kt METAR EDDG 230850Z 11006KT 060V210 CAVOK 20/12 Q1004 NOSIG
10:20
V
19 °C 10 km+ - Var   Var 5 kt METAR EDDG 230820Z VRB05KT CAVOK 19/11 Q1004 NOSIG
09:50
V
19 °C 10 km+ - 100°   100° 7 kt METAR EDDG 230750Z 10007KT 350V160 CAVOK 19/11 Q1004 NOSIG
09:20
V
17 °C 10 km+ - 120°   120° 6 kt METAR EDDG 230720Z 12006KT 050V170 CAVOK 17/11 Q1005 NOSIG
08:50
V
16 °C 10 km+ - 090°   090° 5 kt METAR EDDG 230650Z 09005KT 040V180 CAVOK 16/11 Q1005 NOSIG
08:20
V
15 °C 10 km+ - 090°   090° 5 kt METAR EDDG 230620Z 09005KT 030V150 CAVOK 15/10 Q1005 NOSIG
07:50
V
15 °C 10 km+ - 100°   100° 5 kt METAR EDDG 230550Z 10005KT 030V160 CAVOK 15/10 Q1006 NOSIG
07:20
V
15 °C 10 km+ - 110°   110° 5 kt METAR EDDG 230520Z 11005KT 050V170 CAVOK 15/10 Q1006 NOSIG
06:50
V
14 °C 10 km+ - 090°   090° 4 kt METAR EDDG 230450Z 09004KT 360V160 CAVOK 14/10 Q1006 NOSIG
06:20
V
14 °C 10 km+ - Var   Var 4 kt METAR EDDG 230420Z VRB04KT CAVOK 14/09 Q1007 NOSIG
05:50
V
14 °C 10 km+ - 100°   100° 4 kt METAR EDDG 230350Z 10004KT 040V200 9999 -RA NSC 14/09 Q1007 NOSIG
05:20
V
14 °C 10 km+ - Var   Var 4 kt METAR EDDG 230320Z VRB04KT 9999 -RA SCT036 14/09 Q1008 NOSIG
04:50
V
14 °C 10 km+ - 120°   120° 5 kt METAR EDDG 230250Z 12005KT 040V190 9999 -RA NSC 14/09 Q1008 NOSIG
04:20
V
15 °C 10 km+ - 120°   120° 5 kt METAR EDDG 230220Z 12005KT 050V180 CAVOK 15/09 Q1008 NOSIG
03:50
V
15 °C 10 km+ - Var   Var 4 kt METAR EDDG 230150Z VRB04KT CAVOK 15/08 Q1008 NOSIG
03:20
V
15 °C 10 km+ - Var   Var 4 kt METAR EDDG 230120Z VRB04KT CAVOK 15/08 Q1008 NOSIG
02:50
V
15 °C 10 km+ - 090°   090° 4 kt METAR EDDG 230050Z 09004KT 360V170 CAVOK 15/08 Q1009 NOSIG
02:20
V
15 °C 10 km+ - 080°   080° 4 kt METAR EDDG 230020Z 08004KT 020V160 CAVOK 15/08 Q1009 NOSIG
01:50
V
14 °C 10 km+ - 070°   070° 3 kt METAR EDDG 222350Z 07003KT 040V150 CAVOK 14/08 Q1010 NOSIG
01:20
V
14 °C 10 km+ - 070°   070° 3 kt METAR EDDG 222320Z 07003KT 010V110 CAVOK 14/08 Q1010 NOSIG
00:50
V
14 °C 10 km+ - 070°   070° 3 kt METAR EDDG 222250Z 07003KT 030V120 CAVOK 14/08 Q1011 NOSIG
00:20
V
15 °C 10 km+ - 070°   070° 4 kt METAR EDDG 222220Z 07004KT 020V150 CAVOK 15/08 Q1011 NOSIG

2022年5月22日

时间 代码 天气 温度 能见度 乌云 METAR/SPECI
23:50
V
15 °C 10 km+ - 060°   060° 4 kt METAR EDDG 222150Z 06004KT 350V110 CAVOK 15/08 Q1011 NOSIG
23:20
V
15 °C 10 km+ - 070°   070° 3 kt METAR EDDG 222120Z 07003KT 020V130 CAVOK 15/08 Q1011 NOSIG
22:50
V
15 °C 10 km+ - 070°   070° 3 kt METAR EDDG 222050Z 07003KT 030V120 CAVOK 15/08 Q1011 NOSIG
22:20
V
16 °C 10 km+ - 070°   070° 4 kt METAR EDDG 222020Z 07004KT 020V120 CAVOK 16/08 Q1011 NOSIG
21:50
V
16 °C 10 km+ - 070°   070° 4 kt METAR EDDG 221950Z 07004KT 020V160 CAVOK 16/09 Q1012 NOSIG
21:20
V
17 °C 10 km+ - 070°   070° 5 kt METAR EDDG 221920Z 07005KT 020V170 CAVOK 17/08 Q1012 NOSIG
20:50
V
18 °C 10 km+ - 060°   060° 4 kt METAR EDDG 221850Z 06004KT 020V110 CAVOK 18/08 Q1012 NOSIG
20:20
V
18 °C 10 km+ - 080°   080° 3 kt METAR EDDG 221820Z 08003KT 350V160 CAVOK 18/08 Q1013 NOSIG
19:50
V
19 °C 10 km+ - 110°   110° 4 kt METAR EDDG 221750Z 11004KT 030V180 CAVOK 19/08 Q1013 NOSIG
19:20
V
20 °C 10 km+ - Var   Var 4 kt METAR EDDG 221720Z VRB04KT CAVOK 20/08 Q1013 NOSIG
18:50
V
20 °C 10 km+ - 080°   080° 4 kt METAR EDDG 221650Z 08004KT 030V140 CAVOK 20/08 Q1013 NOSIG
18:20
V
20 °C 10 km+ - Var   Var 5 kt METAR EDDG 221620Z VRB05KT CAVOK 20/08 Q1013 NOSIG
17:50
V
20 °C 10 km+ - 090°   090° 4 kt METAR EDDG 221550Z 09004KT 360V170 CAVOK 20/08 Q1013 NOSIG
17:20
V
21 °C 10 km+ - Var   Var 5 kt METAR EDDG 221520Z VRB05KT CAVOK 21/08 Q1014 NOSIG
16:50
V
21 °C 10 km+ - 130°   130° 4 kt METAR EDDG 221450Z 13004KT 080V200 CAVOK 21/09 Q1014 NOSIG
16:20
V
21 °C 10 km+ - Var   Var 3 kt METAR EDDG 221420Z VRB03KT 9999 FEW048 21/09 Q1014 NOSIG
15:50
V
19 °C 10 km+ - Var   Var 3 kt METAR EDDG 221350Z VRB03KT 9999 FEW048 19/08 Q1015 NOSIG
15:20
V
21 °C 10 km+ - Var   Var 2 kt METAR EDDG 221320Z VRB02KT 9999 FEW048 21/08 Q1015 NOSIG
14:50
V
19 °C 10 km+ - Var   Var 4 kt METAR EDDG 221250Z VRB04KT 9999 FEW048 19/08 Q1015 NOSIG
14:20
V
20 °C 10 km+ - Var   Var 4 kt METAR EDDG 221220Z VRB04KT 9999 SCT044 20/08 Q1016 NOSIG
13:50
V
20 °C 10 km+ - Var   Var 4 kt METAR EDDG 221150Z VRB04KT 9999 SCT044 20/08 Q1016 NOSIG
13:20
V
19 °C 10 km+ - 010°   010° 5 kt METAR EDDG 221120Z 01005KT 310V090 9999 SCT040 19/08 Q1016 NOSIG
12:50
V
18 °C 10 km+ - Var   Var 3 kt METAR EDDG 221050Z VRB03KT 9999 SCT040 18/08 Q1017 NOSIG
12:20
V
18 °C 10 km+ - Var   Var 3 kt METAR EDDG 221020Z VRB03KT 9999 FEW036 18/08 Q1017 NOSIG
11:50
V
18 °C 10 km+ - Var   Var 3 kt METAR EDDG 220950Z VRB03KT 9999 FEW032 18/08 Q1017 NOSIG
11:20
V
17 °C 10 km+ - 330°   330° 4 kt METAR EDDG 220920Z 33004KT 290V020 9999 FEW032 17/09 Q1017 NOSIG
10:50
V
17 °C 10 km+ - Var   Var 3 kt METAR EDDG 220850Z VRB03KT 9999 FEW030 17/09 Q1017 NOSIG
10:20
V
17 °C 10 km+ - Var   Var 2 kt METAR EDDG 220820Z VRB02KT 9999 FEW032 17/09 Q1018 NOSIG
09:50
V
16 °C 10 km+ - 200°   200° 2 kt METAR EDDG 220750Z 20002KT 9999 FEW032 16/09 Q1018 NOSIG
09:20
V
15 °C 10 km+ - Var   Var 2 kt METAR EDDG 220720Z VRB02KT 9999 FEW024 15/09 Q1018 NOSIG
08:50
V
15 °C 10 km+ - Var   Var 2 kt METAR EDDG 220650Z VRB02KT 9999 FEW024 15/10 Q1018 NOSIG
08:20
V
14 °C 10 km+ - Var   Var 1 kt METAR EDDG 220620Z VRB01KT CAVOK 14/10 Q1018 NOSIG
07:50
V
13 °C 10 km+ - Var   Var 1 kt METAR EDDG 220550Z VRB01KT CAVOK 13/09 Q1018 NOSIG
07:20
V
11 °C 10 km+ - Var   000° 0 kt METAR EDDG 220520Z 00000KT CAVOK 11/09 Q1018 NOSIG
06:50
V
8 °C 10 km+ - Var   Var 1 kt METAR EDDG 220450Z VRB01KT CAVOK 08/08 Q1018 NOSIG
06:20
V
7 °C 10 km+ - Var   Var 1 kt METAR EDDG 220420Z VRB01KT 9999 0900NW R25/P2000N BCFG FEW001 07/06 Q1018 NOSIG
05:50
V
6 °C 10 km+ - 140°   140° 1 kt METAR EDDG 220350Z 14001KT 9999 0900W R25/P2000N BCFG FEW001 06/06 Q1018 TEMPO 2000 BCFG
05:20
V
6 °C 10 km+ - Var   Var 1 kt METAR EDDG 220320Z VRB01KT 9999 0900W R25/1400D BCFG NSC 06/06 Q1018 TEMPO 2000 BCFG
04:50
V
6 °C 10 km+ - Var   Var 1 kt METAR EDDG 220250Z VRB01KT 9999 0200N R25/0750U BCFG NSC 06/06 Q1018 TEMPO 2000 BCFG
04:20
V
7 °C 10 km+ - Var   Var 2 kt METAR EDDG 220220Z VRB02KT 9999 2500NW BCFG NSC 07/07 Q1019 TEMPO 2000 BCFG
03:50
V
7 °C 10 km+ - Var   Var 1 kt METAR EDDG 220150Z VRB01KT CAVOK 07/07 Q1018 NOSIG
03:20
V
8 °C 10 km+ - Var   Var 1 kt METAR EDDG 220120Z VRB01KT CAVOK 08/07 Q1019 NOSIG
02:50
V
8 °C 10 km+ - Var   Var 1 kt METAR EDDG 220050Z VRB01KT CAVOK 08/08 Q1019 NOSIG
02:20
V
8 °C 10 km+ - 200°   200° 1 kt METAR EDDG 220020Z 20001KT CAVOK 08/08 Q1019 NOSIG
01:50
V
8 °C 10 km+ - Var   Var 1 kt METAR EDDG 212350Z VRB01KT CAVOK 08/08 Q1019 NOSIG
01:20
V
9 °C 10 km+ - Var   Var 1 kt METAR EDDG 212320Z VRB01KT CAVOK 09/08 Q1019 NOSIG
00:50
V
9 °C 10 km+ - Var   Var 1 kt METAR EDDG 212250Z VRB01KT CAVOK 09/08 Q1019 NOSIG
00:20
V
10 °C 10 km+ - Var   Var 1 kt METAR EDDG 212220Z VRB01KT CAVOK 10/08 Q1020 NOSIG

2022年5月21日

时间 代码 天气 温度 能见度 乌云 METAR/SPECI
23:50
V
11 °C 10 km+ - 320°   320° 2 kt METAR EDDG 212150Z 32002KT CAVOK 11/09 Q1020 NOSIG
23:20
V
13 °C 10 km+ - 310°   310° 3 kt METAR EDDG 212120Z 31003KT 290V350 CAVOK 13/08 Q1020 NOSIG
22:50
V
13 °C 10 km+ - 310°   310° 3 kt METAR EDDG 212050Z 31003KT CAVOK 13/09 Q1020 NOSIG
22:20
V
14 °C 10 km+ - 320°   320° 4 kt METAR EDDG 212020Z 32004KT CAVOK 14/09 Q1020 NOSIG
21:50
V
15 °C 10 km+ - 320°   320° 5 kt METAR EDDG 211950Z 32005KT CAVOK 15/09 Q1020 NOSIG
21:20
V
16 °C 10 km+ - 310°   310° 5 kt METAR EDDG 211920Z 31005KT 270V350 9999 FEW040 16/09 Q1020 NOSIG
20:50
V
16 °C 10 km+ - 320°   320° 7 kt METAR EDDG 211850Z 32007KT 9999 FEW040 16/09 Q1020 NOSIG
20:20
V
17 °C 10 km+ - 300°   300° 6 kt METAR EDDG 211820Z 30006KT 270V340 9999 FEW040 17/08 Q1019 NOSIG
19:50
V
17 °C 10 km+ - 290°   290° 6 kt METAR EDDG 211750Z 29006KT 9999 FEW045 17/08 Q1019 NOSIG
19:20
V
17 °C 10 km+ - 290°   290° 7 kt METAR EDDG 211720Z 29007KT 9999 FEW045 17/08 Q1019 NOSIG
18:50
V
18 °C 10 km+ - 280°   280° 9 kt METAR EDDG 211650Z 28009KT 9999 FEW045 18/08 Q1019 NOSIG
18:20
V
18 °C 10 km+ - 280°   280° 11 kt METAR EDDG 211620Z 28011KT 250V320 9999 FEW040 18/07 Q1020 NOSIG
17:50
V
18 °C 10 km+ - 270°   270° 11 kt METAR EDDG 211550Z 27011KT 9999 FEW037 18/09 Q1020 NOSIG
17:20
V
19 °C 10 km+ - 280°   280° 12 kt METAR EDDG 211520Z 28012KT 250V310 9999 FEW037 19/09 Q1020 NOSIG
16:50
V
18 °C 10 km+ - 280°   280° 11 kt METAR EDDG 211450Z 28011KT 250V310 9999 FEW037 18/09 Q1020 NOSIG
较旧的数据

下载我们的应用程序

在您的手机和平板电脑上轻松访问所有航空天气。
有许多网站上没有的功能,如离线支持和个人机场列表。

Studio Eveline

Benalmádena
España

我们和第三方通过cookies跟踪您在我们网站上的上网行为。如果您继续,我们认为您同意我们的cookie政策。 了解更多